When you browse on this site, cookies collect data to enhance your experience and personalize the content and advertising you see.
Visit our Privacy Policy to learn more. By continuing to use the site, you agree to this use of cookies and data.

Hourly Weather Mariental

Today, 12 July, Sunday

Time Temperature Precipitation Wind Pressure Humidity
00:00 +2°C° 0 mm 5 mps 671 mmHg 49%
01:00 +2°C° 0 mm 5 mps 671 mmHg 53%
02:00 +1°C° 0 mm 5 mps 671 mmHg 54%
03:00 +1°C° 0 mm 5 mps 670 mmHg 56%
04:00 +1°C° 0 mm 5 mps 670 mmHg 57%
05:00 +1°C° 0 mm 5 mps 670 mmHg 57%
06:00 +1°C° 0 mm 5 mps 670 mmHg 56%
07:00 0°C° 0 mm 5 mps 670 mmHg 56%
08:00 +4°C° 0 mm 6 mps 671 mmHg 45%
09:00 +9°C° 0 mm 7 mps 671 mmHg 35%
10:00 +13°C° 0 mm 8 mps 671 mmHg 24%
11:00 +17°C° 0 mm 7 mps 670 mmHg 19%
12:00 +21°C° 0 mm 7 mps 670 mmHg 15%
13:00 +24°C° 0 mm 6 mps 670 mmHg 10%
14:00 +26°C° 0 mm 5 mps 670 mmHg 9%
15:00 +26°C° 0 mm 3 mps 669 mmHg 8%
16:00 +27°C° 0 mm 1 mps 669 mmHg 7%
17:00 +23°C° 0 mm 1 mps 668 mmHg 17%
18:00 +17°C° 0 mm 2 mps 668 mmHg 27%
19:00 +13°C° 0 mm 2 mps 667 mmHg 37%
20:00 +12°C° 0 mm 2 mps 667 mmHg 34%
21:00 +10°C° 0 mm 2 mps 667 mmHg 31%
22:00 +9°C° 0 mm 3 mps 667 mmHg 28%
23:00 +9°C° 0 mm 3 mps 667 mmHg 27%

Tomorrow, 13 July, Monday

Time Temperature Precipitation Wind Pressure Humidity
00:00 +8°C° 0 mm 3 mps 667 mmHg 27%
01:00 +8°C° 0 mm 3 mps 666 mmHg 26%
02:00 +8°C° 0 mm 3 mps 666 mmHg 28%
03:00 +7°C° 0 mm 3 mps 666 mmHg 30%
04:00 +7°C° 0 mm 3 mps 666 mmHg 32%
05:00 +7°C° 0 mm 3 mps 667 mmHg 31%
06:00 +7°C° 0 mm 3 mps 667 mmHg 29%
07:00 +7°C° 0 mm 3 mps 668 mmHg 27%
08:00 +11°C° 0 mm 3 mps 668 mmHg 22%
09:00 +16°C° 0 mm 2 mps 669 mmHg 16%
10:00 +19°C° 0 mm 2 mps 670 mmHg 10%
11:00 +21°C° 0 mm 3 mps 670 mmHg 9%
12:00 +24°C° 0 mm 3 mps 670 mmHg 8%
13:00 +25°C° 0 mm 4 mps 670 mmHg 7%
14:00 +25°C° 0 mm 4 mps 670 mmHg 7%
15:00 +25°C° 0 mm 4 mps 669 mmHg 6%
16:00 +25°C° 0 mm 4 mps 669 mmHg 6%
17:00 +20°C° 0 mm 4 mps 669 mmHg 10%
18:00 +15°C° 0 mm 4 mps 669 mmHg 13%
19:00 +12°C° 0 mm 4 mps 668 mmHg 16%
20:00 +11°C° 0 mm 4 mps 669 mmHg 26%
21:00 +8°C° 0 mm 5 mps 669 mmHg 36%
22:00 +7°C° 0 mm 5 mps 669 mmHg 46%
23:00 +6°C° 0 mm 5 mps 669 mmHg 60%

Day after tomorrow, 14 July, Tuesday

Time Temperature Precipitation Wind Pressure Humidity
00:00 +4°C° 0 mm 4 mps 669 mmHg 75%
01:00 +3°C° 0 mm 4 mps 669 mmHg 89%
02:00 +1°C° 0 mm 4 mps 669 mmHg 91%
03:00 +1°C° 0 mm 3 mps 669 mmHg 93%
04:00 0°C° 0 mm 3 mps 669 mmHg 95%
05:00 0°C° 0 mm 3 mps 670 mmHg 95%
06:00 +1°C° 0 mm 2 mps 671 mmHg 95%
07:00 +1°C° 0 mm 2 mps 672 mmHg 95%
08:00 +2°C° 0 mm 3 mps 672 mmHg 83%
09:00 +4°C° 0 mm 3 mps 673 mmHg 72%
10:00 +8°C° 0 mm 3 mps 673 mmHg 60%
11:00 +10°C° 0 mm 4 mps 673 mmHg 50%
12:00 +12°C° 0 mm 4 mps 673 mmHg 39%
13:00 +14°C° 0 mm 4 mps 673 mmHg 29%
14:00 +14°C° 0 mm 5 mps 673 mmHg 27%
15:00 +14°C° 0 mm 5 mps 672 mmHg 26%
16:00 +15°C° 0 mm 6 mps 672 mmHg 24%
17:00 +12°C° 0 mm 5 mps 672 mmHg 28%
18:00 +9°C° 0 mm 5 mps 672 mmHg 33%
19:00 +6°C° 0 mm 4 mps 672 mmHg 37%
20:00 +5°C° 0 mm 4 mps 673 mmHg 40%
21:00 +4°C° 0 mm 4 mps 673 mmHg 42%
22:00 +3°C° 0 mm 4 mps 674 mmHg 45%
23:00 +3°C° 0 mm 4 mps 674 mmHg 48%

15 July, Wednesday

Time Temperature Precipitation Wind Pressure Humidity
00:00 +1°C° 0 mm 4 mps 674 mmHg 50%
01:00 +1°C° 0 mm 3 mps 674 mmHg 53%
02:00 +1°C° 0 mm 3 mps 674 mmHg 55%
03:00 0°C° 0 mm 3 mps 674 mmHg 57%
04:00 0°C° 0 mm 3 mps 674 mmHg 59%
05:00 -1°C° 0 mm 3 mps 674 mmHg 59%
06:00 -1°C° 0 mm 3 mps 675 mmHg 59%
07:00 -1°C° 0 mm 3 mps 675 mmHg 59%
08:00 +1°C° 0 mm 4 mps 676 mmHg 49%
09:00 +6°C° 0 mm 5 mps 676 mmHg 38%
10:00 +9°C° 0 mm 6 mps 677 mmHg 27%
11:00 +11°C° 0 mm 6 mps 676 mmHg 22%
12:00 +14°C° 0 mm 6 mps 676 mmHg 18%
13:00 +16°C° 0 mm 6 mps 675 mmHg 13%
14:00 +17°C° 0 mm 6 mps 675 mmHg 12%
15:00 +17°C° 0 mm 6 mps 675 mmHg 12%
16:00 +19°C° 0 mm 6 mps 675 mmHg 11%
17:00 +15°C° 0 mm 6 mps 675 mmHg 14%
18:00 +12°C° 0 mm 5 mps 674 mmHg 17%
19:00 +8°C° 0 mm 5 mps 674 mmHg 20%
20:00 +7°C° 0 mm 5 mps 674 mmHg 21%
21:00 +6°C° 0 mm 5 mps 675 mmHg 22%
22:00 +5°C° 0 mm 5 mps 675 mmHg 23%
23:00 +3°C° 0 mm 5 mps 675 mmHg 23%

16 July, Thursday

Time Temperature Precipitation Wind Pressure Humidity
00:00 +4°C° 0 mm 4 mps 675 mmHg 24%
01:00 +3°C° 0 mm 4 mps 675 mmHg 25%
02:00 +3°C° 0 mm 4 mps 674 mmHg 25%
03:00 +1°C° 0 mm 4 mps 674 mmHg 26%
04:00 +1°C° 0 mm 3 mps 674 mmHg 27%
05:00 +1°C° 0 mm 4 mps 675 mmHg 27%
06:00 +1°C° 0 mm 4 mps 676 mmHg 27%
07:00 +1°C° 0 mm 5 mps 676 mmHg 27%
08:00 +4°C° 0 mm 6 mps 677 mmHg 30%
09:00 +9°C° 0 mm 7 mps 677 mmHg 32%
10:00 +13°C° 0 mm 8 mps 677 mmHg 34%
11:00 +16°C° 0 mm 8 mps 677 mmHg 28%
12:00 +18°C° 0 mm 7 mps 677 mmHg 22%
13:00 +22°C° 0 mm 7 mps 676 mmHg 15%
14:00 +22°C° 0 mm 7 mps 676 mmHg 15%
15:00 +22°C° 0 mm 7 mps 676 mmHg 14%
16:00 +22°C° 0 mm 7 mps 675 mmHg 14%
17:00 +18°C° 0 mm 7 mps 675 mmHg 18%
18:00 +15°C° 0 mm 6 mps 675 mmHg 23%
19:00 +12°C° 0 mm 5 mps 675 mmHg 27%
20:00 +10°C° 0 mm 5 mps 675 mmHg 30%
21:00 +9°C° 0 mm 6 mps 675 mmHg 33%
22:00 +8°C° 0 mm 6 mps 675 mmHg 36%
23:00 +8°C° 0 mm 6 mps 675 mmHg 39%

17 July, Friday

Time Temperature Precipitation Wind Pressure Humidity
00:00 +7°C° 0 mm 5 mps 675 mmHg 42%
01:00 +6°C° 0 mm 5 mps 675 mmHg 46%
02:00 +5°C° 0 mm 5 mps 675 mmHg 46%
03:00 +5°C° 0 mm 5 mps 675 mmHg 47%
04:00 +3°C° 0 mm 5 mps 675 mmHg 48%
05:00 +3°C° 0 mm 5 mps 675 mmHg 49%
06:00 +3°C° 0 mm 4 mps 675 mmHg 50%
07:00 +3°C° 0 mm 4 mps 676 mmHg 51%
08:00 +6°C° 0 mm 5 mps 676 mmHg 43%
09:00 +10°C° 0 mm 6 mps 676 mmHg 35%
10:00 +14°C° 0 mm 7 mps 677 mmHg 27%
11:00 +16°C° 0 mm 7 mps 676 mmHg 22%
12:00 +20°C° 0 mm 7 mps 676 mmHg 18%
13:00 +22°C° 0 mm 6 mps 675 mmHg 13%
14:00 +22°C° 0 mm 6 mps 675 mmHg 12%
15:00 +22°C° 0 mm 6 mps 674 mmHg 11%
16:00 +23°C° 0 mm 6 mps 674 mmHg 10%
17:00 +20°C° 0 mm 6 mps 674 mmHg 13%
18:00 +16°C° 0 mm 5 mps 674 mmHg 17%
19:00 +13°C° 0 mm 5 mps 674 mmHg 20%
20:00 +12°C° 0 mm 5 mps 674 mmHg 22%
21:00 +10°C° 0 mm 5 mps 674 mmHg 24%
22:00 +9°C° 0 mm 5 mps 674 mmHg 26%
23:00 +8°C° 0 mm 5 mps 673 mmHg 30%
Show more